Home   Weather   Mesa   Past weeks
Flag for USA

Past Weather in Mesa, Arizona, USA — Yesterday and Last 2 Weeks

Now
76 °F

Sunny.


Feels Like: 77 °F
Forecast: 81 / 56 °F
Wind: 7 mph from Northeast

Location: Mesa / Falcon Field

Current Time: Mar 18, 2019 at 11:23:43 am

Latest Report: Mar 18, 2019 at 10:54 am


Visibility: 10 mi

Pressure: 29.98 "Hg

Humidity: 24%

Dew Point: 36 °F

Location of MesaLocation

Past Weather in Mesa — Graph

°F

Mesa Temperature Yesterday

Maximum temperature yesterday: 79 °F (at 4:54 pm)
Minimum temperature yesterday: 58 °F (at 6:54 am)
Average temperature yesterday: 68 °F

High & Low Weather Summary for the Past Weeks

 TemperatureHumidityPressure
High82 °F (Mar 6, 3:54 pm)93% (Mar 12, 3:54 am)30.14 "Hg (Mar 12, 3:54 am)
Low43 °F (Mar 14, 2:54 am)13% (Mar 5, 4:54 pm)29.67 "Hg (Mar 12, 4:54 pm)
Average61 °F42%29.90 "Hg
* Reported Mar 3 9:54 am — Mar 18 9:54 am, Mesa. Weather by CustomWeather, © 2019

Note: Actual official high and low records may vary slightly from our data, if they occured in-between our weather recording intervals... More about our weather records

Advertising

Mesa Weather History for the Previous 24 Hours

Scroll right to see more
 ConditionsComfort  
Time TempWeatherWind HumidityBarometerVisibility
9:54 am
Mon, Mar 18
73 °FSunny.12 mph28%29.98 "Hg10 mi
8:54 am66 °FSunny.10 mph39%29.98 "Hg10 mi
7:54 am62 °FSunny.10 mph43%29.98 "Hg10 mi
6:54 am59 °FSunny.8 mph49%29.96 "Hg10 mi
5:54 am59 °FClear.7 mph49%29.95 "Hg10 mi
4:54 am60 °FClear.6 mph47%29.93 "Hg10 mi
3:54 am60 °FClear.5 mph47%29.92 "Hg10 mi
2:54 am61 °FClear.8 mph46%29.93 "Hg10 mi
1:54 am62 °FClear.7 mph43%29.95 "Hg10 mi
12:54 am62 °FClear.No wind43%29.94 "Hg10 mi
11:54 pm
Sun, Mar 17
65 °FClear.3 mph37%29.95 "Hg10 mi
10:54 pm65 °FClear.8 mph39%29.94 "Hg10 mi
9:54 pm66 °FClear.6 mph39%29.94 "Hg10 mi
8:54 pm67 °FClear.5 mph41%29.93 "Hg10 mi
7:54 pm70 °FClear.3 mph38%29.92 "Hg10 mi
6:54 pm75 °FClear.3 mph27%29.91 "Hg10 mi
5:54 pm76 °FSunny.5 mph25%29.90 "Hg10 mi
4:54 pm79 °FSunny.5 mph21%29.90 "Hg10 mi
3:54 pm77 °FSunny.No wind23%29.92 "Hg10 mi
2:54 pm77 °FSunny.No wind24%29.93 "Hg10 mi
1:54 pm76 °FSunny.3 mph25%29.96 "Hg10 mi
12:54 pm73 °FSunny.6 mph27%29.99 "Hg10 mi
11:54 am72 °FSunny.No wind28%30.02 "Hg10 mi
Weather by CustomWeather, © 2019

See weather overview